Retour au catalogue

SL-12 R/B(2)

ActifGEO
NORAD 21041·ROCKET BODY·🇷🇺 Russia

Lancé Dec 27, 1990 depuis Baikonur Cosmodrome

Loading…

TLE

FraisSource: Space-Track

Époque: Aug 28, 2026, 02:33 UTC

1 21041U 90116D   26240.10680301 -.00000179  00000-0  00000+0 0  9995
2 21041  13.8648 340.6920 0031212 101.8855 269.8535  0.97944212127131

Suivez SL-12 R/B(2) en temps réel avec AllMySat

Download on the App Store